Location: Arrakis Observatory
(44.1122°N, 95.7153°W)
Time: 15:15:01
(UTC-05:00)

Daily predictions for brighter satellites

Satellite Brightness Start Highest point End
(mag) Time Altitude Azimuth Time Altitude Azimuth Time Altitude Azimuth
Envisat 4.4 20:35:27 10° ESE 20:39:14 22° ENE 20:43:03 10° NNE
Cosmos 1821 Rocket 3.9 20:33:13 10° S 20:39:16 70° E 20:45:20 10° NNE
Cosmos 1605 Rocket 4.4 20:36:23 10° SSE 20:42:19 44° E 20:48:12 10° NNE
Helios 1B rocket 3.4 20:38:44 10° N 20:42:47 55° WNW 20:46:48 10° SSW
Meteor 1-11 Rocket 4.4 20:38:50 10° SSW 20:44:21 61° WNW 20:49:50 10° N
CZ-4B DEB 3.0 20:41:21 10° S 20:44:37 78° WSW 20:47:55 10° NNW
Iridium 4 Rocket 4.1 20:46:50 10° NNE 20:51:32 33° E 20:55:50 10° SE
DELTA 2 R/B (1) 3.9 20:49:55 10° W 20:55:20 54° S 21:00:24 12° ESE
Okean 2 3.5 20:52:07 10° N 20:56:20 85° W 21:00:28 10° S
Cosmos 1975 3.6 20:54:38 10° SSE 20:58:18 32° E 21:01:59 10° NNE
EO 1 Delta rocket 3.9 20:55:34 10° NNE 21:00:12 69° E 21:05:22 10° S
Lacrosse 5 rocket 1.1 21:02:54 10° NW 21:06:39 66° NE 21:09:24 16° ESE
Cosmos 1697 Rocket 3.6 21:02:31 10° SSE 21:07:02 25° ESE 21:11:34 10° NE
H-2A R/B 3.2 21:06:31 14° ESE 21:08:58 24° ENE 21:12:18 10° NNE
Cosmos 2278 3.7 21:03:33 10° SSW 21:09:10 70° ESE 21:14:52 10° NNE
Cosmos 2123 Rocket 4.0 21:03:15 10° N 21:09:28 90° E 21:15:39 10° S
Cosmos 1892 Rocket 4.5 21:05:34 10° NNW 21:09:56 53° W 21:14:17 10° S
Cosmos 1626 Rocket 3.7 21:06:46 10° N 21:11:08 56° E 21:15:25 10° SSE
ALOS 2.9 21:07:18 10° S 21:11:53 57° W 21:16:31 10° NNW
ERS-1 Rocket 3.2 21:07:54 10° SE 21:12:46 53° ENE 21:17:39 10° N
NOSS 2-1 (D) 4.3 21:09:04 10° SW 21:12:54 53° NW 21:17:24 10° NNE
NOSS 2-1 (C) 4.3 21:10:05 10° SW 21:13:56 53° NW 21:18:27 10° NNE
H-2A R/B 3.4 21:11:06 10° S 21:14:54 57° W 21:18:48 10° NNW
Cosmos 1898 Rocket 4.0 21:10:15 10° N 21:15:20 43° ENE 21:19:08 17° SE
Cosmos 1455 Rocket 3.3 21:12:34 10° SSW 21:16:53 74° W 21:21:16 10° N
Cosmos 1461 3.0 21:13:47 10° NW 21:17:52 70° WSW 21:21:13 14° SSE
Cosmos 1602 Rocket 3.5 21:15:06 10° N 21:19:35 70° E 21:23:59 10° SSE
Meteor 1-12 Rocket 4.2 21:14:13 10° S 21:19:52 68° E 21:25:40 10° NNE
Cosmos 2369 3.6 21:16:50 10° SSW 21:22:30 79° ESE 21:28:13 10° NNE
Cosmos 1459 Rocket 4.4 21:21:29 10° SSE 21:27:00 38° E 21:32:34 10° NNE
Cosmos 1980 Rocket 3.2 21:26:51 18° SE 21:29:11 23° E 21:33:35 10° NE
Cosmos 1939 Rocket 3.0 21:27:38 18° SSE 21:30:37 62° ENE 21:34:45 10° N
BREEZE-M DEB (TANK) 4.0 21:27:50 10° WNW 21:31:10 59° NNE 21:38:48 15° E
ARGOS 4.4 21:30:52 18° E 21:33:11 25° ENE 21:37:28 10° N
Cosmos 468 Rocket 4.2 21:31:32 10° S 21:36:22 44° ESE 21:41:14 10° NNE
Lacrosse 5 2.3 21:31:36 10° NW 21:36:33 52° NE 21:39:26 24° ESE
Cosmos 1153 Rocket 4.4 21:32:54 10° S 21:39:06 82° E 21:45:17 10° N
Cosmos 2084 3.4 21:36:28 10° NNW 21:40:29 65° NE 21:42:22 31° ESE
Cosmos 220 Rocket 4.1 21:39:33 10° NNW 21:43:46 72° WSW 21:46:33 21° S
SPOT 5 3.2 21:41:22 25° SE 21:44:01 50° ENE 21:48:42 10° N
Cosmos 1814 Rocket 4.3 21:39:30 10° S 21:44:34 45° ESE 21:49:38 10° NNE
USA 186 4.2 21:43:46 10° SW 21:46:08 20° W 21:48:24 10° NW
Tiangong 1 0.9 21:44:53 10° W 21:47:59 69° S 21:48:23 58° SE
OTV 4 2.6 21:46:31 10° WSW 21:48:16 16° SSW 21:48:16 16° SSW
USA 215 3.9 21:44:53 17° E 21:49:37 46° NNE 21:55:47 10° NW
MetOp-B 4.4 21:49:21 28° SE 21:51:57 53° ENE 21:57:09 10° N
Cosmos 1802 Rocket 4.2 21:47:44 16° SSE 21:52:45 54° E 21:58:59 10° NNE
Cosmos 2227 Rocket 3.3 21:49:36 10° NW 21:54:53 41° WSW 22:00:08 10° S
Cosmos 1606 Rocket 4.0 21:54:42 36° ESE 21:55:20 39° E 21:59:27 10° NNE
Cosmos 2263 Rocket 4.1 21:52:49 10° N 21:55:59 15° NE 21:58:15 12° ENE
Cosmos 1500 3.1 21:53:26 15° S 21:56:30 81° W 22:00:18 10° N
RESURS DK-1 2.5 21:53:08 10° NNW 21:57:14 58° ENE 21:58:17 43° ESE
Cosmos 858 Rocket 4.5 21:55:19 10° NNW 22:00:38 88° WSW 22:03:21 30° SSE
Cosmos 2322 Rocket 4.2 22:03:22 12° ENE 22:03:22 12° ENE 22:04:09 10° ENE
CZ-4 DEB 4.5 21:59:27 15° SSW 22:01:31 30° W 22:04:21 10° NW
CZ-3C R/B 4.4 21:39:45 10° WSW 22:03:14 22° SW 22:09:52 12° S
PSLV R/B 4.0 22:03:53 38° NE 22:03:53 38° NE 22:06:14 10° N
Cosmos 1656 3.7 21:57:41 10° SSW 22:03:19 86° WNW 22:08:55 10° NNE
Cosmos 2298 Rocket 4.3 22:00:35 10° NNW 22:05:52 66° WSW 22:08:57 25° S
Cosmos 1340 2.6 22:05:51 10° N 22:09:38 63° E 22:09:50 62° E
CZ-4 SHROUD 4.1 22:11:18 37° NNE 22:11:18 37° NNE 22:13:31 10° N
Cosmos 2297 Rocket 3.2 22:05:15 10° NW 22:10:34 43° WSW 22:14:38 16° S
SL-19 R/B 4.4 22:05:37 10° NNE 22:10:55 46° E 22:12:00 40° SE
Cosmos 2016 Rocket 3.9 22:07:39 27° SSE 22:11:01 61° E 22:17:06 10° NNE
Cosmos 2227 4.4 22:07:56 10° NNW 22:13:37 56° ENE 22:15:23 40° ESE
Envisat 3.6 22:14:26 19° S 22:17:53 52° W 22:22:52 10° NNW
Cosmos 1726 Rocket 3.5 22:19:23 59° ESE 22:19:32 60° E 22:23:53 10° NNE
H-2A R/B 2.9 22:19:51 30° ENE 22:20:11 30° ENE 22:24:29 10° N
Cosmos 1937 Rocket 3.6 22:16:37 10° NNW 22:21:53 73° WSW 22:23:51 39° S
Terra 3.1 22:23:37 26° ENE 22:23:37 26° ENE 22:27:30 10° N
Cosmos 2173 Rocket 4.1 22:17:30 10° S 22:23:51 80° W 22:30:13 10° N
YAOGAN 6 2.5 22:24:05 80° SW 22:24:09 81° WSW 22:27:52 10° NNW
ASTEX 1 3.3 22:19:18 10° N 22:24:20 82° E 22:25:57 44° S
Cosmos 1743 3.1 22:28:24 44° SW 22:29:24 61° W 22:33:18 10° N
Cosmos 2098 Rocket 4.0 22:26:49 35° SSE 22:29:47 66° E 22:35:42 10° NNE
Cosmos 1825 Rocket 3.9 22:26:59 10° NNW 22:31:23 60° W 22:32:29 44° SSW
Cosmos 2100 Rocket 4.4 22:28:10 10° SSW 22:34:23 61° W 22:40:34 10° N
Cosmos 2061 Rocket 4.3 22:29:08 10° SSW 22:35:24 66° W 22:41:39 10° N
Cosmos 990 Rocket 4.1 22:32:23 10° NNW 22:37:38 72° WSW 22:38:50 52° S
MetOp-A 4.5 22:36:23 36° SSW 22:38:28 61° W 22:43:47 10° NNW
Cosmos 1864 Rocket 4.4 22:37:11 51° SSE 22:38:37 66° E 22:44:41 10° NNE
Tsikada Rocket 4.0 22:32:22 10° N 22:38:49 71° E 22:40:26 51° SE
SPOT 1/Viking Rocket 3.5 22:37:52 58° SSE 22:38:57 89° WSW 22:44:12 10° NNW
Cosmos 967 Rocket 4.4 22:33:20 10° NNW 22:39:44 89° ENE 22:41:20 54° SSE
USA 245 4.5 22:37:45 43° S 22:39:58 83° WSW 22:46:23 10° NNW
Cosmos 1953 Rocket 3.8 22:35:56 10° NNW 22:40:22 67° W 22:40:55 60° SW
DELTA 2 R/B (1) 4.4 22:36:18 10° W 22:41:10 34° SSW 22:41:10 34° SSW
CZ-4B R/B 3.3 22:38:39 10° NNE 22:43:00 64° ENE 22:43:00 64° ENE
H-2A R/B 3.5 22:43:40 26° SW 22:44:52 30° W 22:48:33 10° NW
Lacrosse 5 rocket 3.5 22:43:23 10° W 22:45:08 14° WSW 22:45:08 14° WSW
BREEZE-M DEB (TANK) 3.0 22:36:50 10° WSW 22:47:35 80° SSE 22:48:16 65° E
BREEZE-M DEB (TANK) 3.2 22:45:46 10° WNW 22:47:27 42° W 22:47:27 42° W
Cosmos 1842 3.8 22:45:42 10° NNW 22:48:55 57° NNW 22:48:55 57° NNW
Cosmos 1697 Rocket 3.5 22:45:11 10° SW 22:50:39 50° WNW 22:56:10 10° NNE
SL-16 R/B 3.3 22:57:20 31° ENE 22:57:20 31° ENE 23:00:37 10° NE
NOAA 11 4.4 22:57:00 55° SSW 22:58:00 67° WSW 23:03:28 10° NNW
Cosmos 1758 Rocket 4.2 22:55:14 10° NNW 22:59:26 47° W 22:59:30 47° W
Cosmos 1125 Rocket 3.4 22:58:30 10° NNW 23:03:32 79° NNE 23:03:32 79° NNE
Cosmos 2228 3.9 23:05:54 45° N 23:05:54 45° N 23:08:56 10° N
Cosmos 1816 Rocket 4.4 22:58:47 10° N 23:05:12 87° E 23:06:06 68° SSE
Cosmos 1763 Rocket 3.8 23:04:15 45° WSW 23:05:36 61° WNW 23:10:39 10° NNE
Cosmos 2346 Rocket 4.5 23:00:31 10° N 23:06:43 62° E 23:06:51 62° E
Cosmos 1725 Rocket 4.1 23:07:24 48° SSW 23:09:13 73° W 23:15:28 10° N
Meteor 2-5 Rocket 4.0 23:06:03 10° N 23:11:37 56° ENE 23:11:37 56° ENE
Cosmos 1980 Rocket 2.8 23:08:26 17° SW 23:12:46 54° WNW 23:18:23 10° NNE
ARGOS 3.7 23:12:23 47° SW 23:13:06 50° W 23:18:21 10° NNW
Cosmos 2360 Rocket 4.3 23:17:04 14° ENE 23:17:04 14° ENE 23:17:57 10° NE
Meteor 1-15 Rocket 4.4 23:12:45 59° SW 23:13:47 74° W 23:19:42 10° N
Lacrosse 5 3.1 23:14:51 10° WNW 23:18:37 31° WSW 23:18:37 31° WSW
Cosmos 2058 Rocket 4.3 23:21:53 39° W 23:21:58 39° WNW 23:26:14 10° N
Cosmos 841 Rocket 4.3 23:25:05 38° WSW 23:26:25 47° WNW 23:31:29 10° N
Meteor 2-17 Rocket 4.4 23:32:05 73° WSW 23:32:20 74° W 23:38:25 10° N
USA 215 3.2 23:32:14 70° SSW 23:32:26 70° SW 23:38:59 10° NW
Cosmos 2233 Rocket 4.0 23:36:30 70° WSW 23:36:49 72° W 23:43:05 10° N
Meteor 1-24 Rocket 4.3 23:33:15 10° N 23:38:22 52° NE 23:38:22 52° NE
Cosmos 2263 Rocket 2.5 23:35:17 10° NNW 23:39:56 61° N 23:39:56 61° N
Cosmos 2322 Rocket 2.6 23:45:08 59° N 23:45:08 59° N 23:49:47 10° NNE
Cosmos 540 Rocket 4.4 23:51:22 43° N 23:51:22 43° N 23:54:51 10° NNE
